Probability
0 0 0 0 0 0 0 0 0 0 0 0 0 0 0 0 0 0 0 0 0 0 0 0 0 0 0 0 0 0 0 0 0 0 0 0 0 0 0 0 0 0 0
0 0 0 0 0 0 0 0 0 0 0 0 0 0 0 0 0 0 0 0 0 0 0 0 0 0 0 0 0 0 0 0 0 0 0 0 0 0 0 0 0 0 0
0 0 0 0 0 0 0 0 0 0 0 0 0 0 0 0 0 0 0 0 0 0 0 0 0 0 0 0 0 0 0 0 0 0 0 0 0 0 0 0 0 0 0
0 0 0 0 0 0 0 0 0 0 0 0 0 0 0 0 0 0 0 0 0 0 0 0 0 0 0 0 0 0 0 0 0 0 0 0 0 0 0 0 0 0 0
0 0 0 0 0 0 0 0 0 0 0 0 0 0 0 0 0 0 0 0 0 0 0 0 0 0 0 0 0 0 0 0 0 0 0 0 0 0 0 0 0 0 0
0 0 0 0 0 0 0 0 0 0 0 0 0 0 0 0 0 0 0 0 0 0 0 0 0 0 0 0 0 0 0 0 0 0 0 0 0 0 0 0 0 0 0
0 0 0 0 0 0 0 0 0 0 0 0 0 0 0 0 0 0 0 0 0 0 0 0 0 0 0 0 0 0 0 0 0 0 0 0 0 0 0 0 0 0 0
0 0 0 0 0 0 0 0 0 0 0 0 0 0 0 0 0 0 0 0 0 0 0 0 0 0 0 0 0 0 0 0 0 0 0 0 0 0 0 0 0 0 0
0 0 0 0 0 0 0 0 0 0 0 0 0 0 0 0 0 0 0 0 0 0 0 0 0 0 0 0 0 0 0 0 0 0 0 0 0 0 0 0 0 0 0
0 0 0 0 0 0 0 0 0 0 0 0 0 0 0 0 0 0 0 0 0 0 0 0 0 0 0 0 0 0 0 0 0 0 0 0 0 0 0 0 0 0 0
0 0 0 0 0 0 0 0 0 0 0 0 0 0 0 0 0 0 0 0 0 0 0 0 0 0 0 0 0 0 0 0 0 0 0 0 0 0 0 0 0 0 0
0 0 0 0 0 0 0 0 0 0 0 0 0 0 0 0 0 0 0 0 0 0 0 0 0 0 0 0 0 0 0 0 0 0 0 0 0 0 0 0 0 0 0
0 0 0 0 0 0 0 0 0 0 0 0 0 0 0 0 0 0 0 0 0 0 0 0 0 0 0 0 0 0 0 0 0 0 0 0 0 0 0 0 0 0 0
0 0 0 0 0 0 0 0 0 0 0 0 0 0 0 0 0 0 0 0 0 0 0 0 0 0 0 0 0 0 0 0 0 0 0 0 0 0 0 0 0 0 0
0 0 0 0 0 0 0 0 0 0 0 0 0 0 0 0 0 0 0 0 0 0 0 0 0 0 0 0 0 0 0 0 0 0 0 0 0 0 0 0 0 0 0
0 0 0 0 0 0 0 0 0 0 0 0 0 0 0 0 0 0 0 0 0 0 0 0 0 0 0 0 0 0 0 0 0 0 0 0 0 0 0 0 0 0 0
0 0 0 0 0 0 0 0 0 0 0 0 0 0 0 0 0 0 0 0 0 0 0 0 0 0 0 0 0 0 0 0 0 0 0 0 0 0 0 0 0 0 0
0 0 0 0 0 0 0 0 0 0 0 0 0 0 0 0 0 0 0 0 0 0 0 0 0 0 0 0 0 0 0 0 0 0 0 0 0 0 0 0 0 0 0
0 0 0 0 0 0 0 0 0 0 0 0 0 0 0 0 0 0 0 0 0 0 0 0 0 0 0 0 0 0 0 0 0 0 0 0 0 0 0 0 0 0 0
0 0 0 0 0 0 0 0 0 0 0 0 0 0 0 0 0 0 0 0 0 0 0 0 0 0 0 0 0 0 0 0 0 0 0 0 0 0 0 0 0 0 0
0 0 0 0 0 0 0 0 0 0 0 0 0 0 0 0 0 0 0 0 0 0 0 0 0 0 0 0 0 0 0 0 0 0 0 0 0 0 0 0 0 0 0
0 0 0 0 0 0 0 0 0 0 0 0 0 0 0 0 0 0 0 0 0 0 0 0 0 0 0 0 0 0 0 0 0 0 0 0 0 0 0 0 0 0 0
0 0 0 0 0 0 0 0 0 0 0 0 0 0 0 0 0 0 0 0 0 0 0 0 0 0 0 0 0 0 0 0 0 0 0 0 0 0 0 0 0 0 0
0 0 0 0 0 0 0 0 0 0 0 0 0 0 0 0 0 0 0 0 0 0 0 0 0 0 0 0 0 0 0 0 0 0 0 0 0 0 0 0 0 0 0
0 0 0 0 0 0 0 0 0 0 0 0 0 0 0 0 0 0 0 0 0 0 0 0 0 0 0 0 0 0 0 0 0 0 0 0 0 0 0 0 0 0 0
0 0 0 0 0 0 0 0 0 0 0 0 0 0 0 0 0 0 0 0 0 0 0 0 0 0 0 0 0 0 0 0 0 0 0 0 0 0 0 0 0 0 0
Wind_Speed
10 11 12 12 11 11 13 14 14 13 11 9 8 7 7 6 6 5 7 9 9 9 7 5 5 5 5 5 5 4 3 2 2 1 0 0 2 4 4 4 4 5 5
10 11 13 13 13 14 14 14 15 15 13 11 9 7 7 6 6 5 7 9 9 10 8 7 6 6 5 6 6 5 3 3 3 3 2 1 1 1 3 4 4 5 4
11 12 14 15 15 15 16 15 16 16 16 13 8 6 6 5 6 8 8 9 10 10 9 9 7 7 7 6 7 6 6 4 4 3 3 3 3 2 2 4 4 5 4
10 11 14 15 16 17 15 15 16 16 16 15 13 13 12 12 12 9 9 9 11 11 11 10 9 8 7 7 7 7 6 5 4 3 3 2 2 3 3 2 3 4 5
12 12 13 15 16 16 15 15 15 16 16 16 17 16 14 11 8 8 10 11 10 11 11 11 10 10 8 9 8 8 7 6 5 4 3 2 1 2 3 3 3 2 3
11 12 11 12 14 14 14 14 15 17 17 18 18 18 17 14 11 12 12 11 9 10 12 12 11 11 9 9 9 9 9 8 7 5 5 5 4 4 4 4 3 3 3
9 10 10 11 13 14 15 15 17 18 17 18 19 19 19 17 16 14 13 11 10 10 14 13 12 10 10 10 9 9 9 9 8 7 5 5 4 4 4 4 3 3 3
5 5 6 8 10 13 14 15 17 17 17 18 18 17 17 14 13 14 12 12 11 11 11 14 13 12 11 10 10 9 9 8 9 8 7 5 4 4 4 5 5 3 2
5 5 4 5 7 9 11 14 15 15 15 16 16 16 16 16 14 13 13 9 9 9 12 13 13 12 12 11 11 8 9 9 8 8 7 5 4 3 3 3 4 6 5
4 3 3 3 4 5 7 9 11 13 13 13 13 12 14 15 13 11 12 11 11 11 12 13 13 12 12 12 11 8 8 9 7 6 8 6 4 4 3 3 3 3 5
2 2 2 2 2 2 4 6 8 9 9 10 10 11 11 12 12 11 11 11 10 11 13 13 12 12 12 12 11 10 10 10 8 7 9 8 7 6 4 4 4 3 3
2 2 3 3 3 4 4 5 6 7 7 7 8 9 9 10 11 12 12 10 10 11 11 11 12 12 12 12 13 12 12 12 12 11 10 9 7 8 6 5 5 4 3
3 2 3 4 5 5 5 5 5 5 5 5 5 6 7 9 10 10 10 10 10 10 10 11 12 12 12 12 12 12 12 13 13 13 13 12 11 9 6 6 6 4 3
4 4 4 4 5 5 5 5 5 4 4 4 5 5 6 6 6 6 7 8 9 10 10 11 11 11 11 12 11 11 10 10 10 10 11 12 13 12 11 8 7 6 5
5 5 5 5 5 5 5 5 4 4 3 4 4 4 3 2 3 3 4 5 6 7 8 9 9 9 9 10 11 11 11 11 10 9 9 10 11 12 11 9 9 9 6
6 6 5 5 5 6 5 5 5 4 4 4 4 2 2 2 2 3 3 4 4 4 5 7 8 9 8 11 15 13 11 11 12 11 8 8 9 12 13 13 13 12 9
6 6 5 5 5 6 6 6 5 4 4 3 3 2 2 3 2 3 3 4 4 4 5 6 7 8 8 13 15 14 10 10 10 11 11 8 7 9 9 11 12 9 10
5 5 3 3 3 3 4 4 4 4 4 3 3 2 3 3 3 3 3 3 3 4 4 5 6 5 7 13 15 14 9 8 8 9 10 11 11 10 11 10 8 6 5
4 3 2 2 1 2 4 4 4 4 4 3 3 3 3 3 4 3 3 3 3 3 3 3 5 6 6 12 15 14 7 7 7 7 8 9 11 16 17 12 9 7 4
1 1 1 2 3 3 4 5 4 3 3 3 3 3 3 4 3 3 3 2 3 3 3 3 3 5 5 11 15 15 7 8 7 6 6 9 12 17 18 11 10 10 7
3 3 3 4 3 3 5 4 3 2 1 2 3 3 3 3 3 3 3 3 3 4 4 4 3 3 5 10 15 15 6 8 8 7 7 7 16 18 18 13 8 9 8
4 4 5 5 5 4 4 4 2 2 3 3 4 3 3 3 3 4 4 4 4 4 4 4 3 2 3 6 11 15 11 10 7 7 6 7 16 17 17 11 10 12 9
4 4 5 6 5 5 4 4 2 3 4 4 3 3 3 3 3 4 4 4 3 3 4 4 4 3 3 5 10 12 12 11 5 4 8 11 15 15 11 12 13 9 6
4 4 6 6 5 5 5 4 3 3 4 4 3 3 3 3 3 2 2 3 3 3 3 4 4 4 4 4 5 5 5 7 5 5 6 11 13 10 7 6 8 5 6
4 5 6 6 5 5 6 5 4 3 4 4 3 3 3 3 2 2 1 1 1 2 3 3 4 5 5 7 10 8 6 6 6 7 5 5 6 6 5 5 5 5 5
6 6 6 6 6 6 6 5 4 3 4 4 3 2 2 2 2 2 2 1 0 1 2 2 3 2 4 7 11 13 12 12 13 8 6 7 7 8 7 7 6 6 7
Wind_Direction
195 185 185 185 184 185 185 185 186 188 184 185 187 191 196 192 194 192 186 183 183 185 186 179 180 176 178 187 185 180 185 201 171 129 153 100 121 122 126 121 113 104 96
196 186 183 184 189 192 191 190 189 188 189 192 191 192 188 195 196 193 194 192 187 185 190 187 185 183 184 190 189 177 177 188 176 175 164 161 126 132 138 126 125 124 110
203 191 186 189 192 196 196 196 194 191 191 188 186 187 190 193 196 198 200 201 195 190 189 193 190 188 187 192 193 184 179 188 199 194 179 182 192 158 156 148 139 135 124
212 199 191 192 195 200 199 198 197 195 192 189 192 192 196 201 201 196 197 199 200 197 194 194 195 193 192 195 194 192 188 180 185 196 205 192 169 155 162 163 143 136 134
215 209 198 196 199 199 198 199 198 198 195 194 197 199 206 207 198 192 195 198 201 201 198 197 198 198 197 198 194 192 193 190 185 175 173 188 204 180 159 177 173 151 146
215 214 204 194 197 196 195 196 199 203 199 198 200 203 207 205 198 198 200 200 200 202 201 199 201 201 199 198 198 195 195 197 194 184 172 168 173 187 180 178 173 171 163
216 213 207 199 196 194 195 198 200 206 203 202 204 207 210 208 207 204 203 199 199 202 203 200 202 201 201 198 194 193 196 197 195 191 189 187 184 167 167 167 164 157 154
229 223 211 203 201 198 197 198 203 208 206 206 209 210 210 211 213 211 207 204 203 203 197 200 203 202 199 196 192 195 197 194 196 193 185 179 181 170 166 164 154 154 170
240 234 225 211 206 202 201 202 206 209 209 210 210 211 210 212 214 212 211 206 202 196 195 197 200 201 198 196 192 197 194 189 191 186 181 173 169 162 161 152 154 158 176
242 236 224 219 215 208 207 207 210 215 215 214 213 214 214 214 215 214 213 210 202 194 192 196 198 198 197 194 192 187 183 181 182 176 170 169 160 154 153 151 148 147 156
201 220 230 234 228 224 216 214 216 219 220 218 217 215 215 214 214 216 216 211 203 195 193 194 194 195 194 190 189 187 178 180 177 171 172 172 160 160 160 149 147 145 138
177 201 217 221 228 229 226 224 224 223 223 222 222 220 216 213 214 217 215 208 203 197 193 189 191 193 193 189 188 184 182 181 179 178 171 171 164 161 160 157 155 151 141
195 215 227 226 227 226 222 221 222 224 224 224 227 227 220 216 217 217 211 204 199 194 190 188 191 192 192 191 191 186 185 185 182 178 176 173 166 166 164 159 154 147 133
211 227 233 234 226 222 220 218 223 219 215 218 224 228 227 222 221 215 205 199 193 191 191 191 192 191 191 191 187 182 182 181 178 176 175 173 173 171 167 163 156 145 136
226 235 237 239 229 223 221 215 215 208 202 211 222 229 231 224 209 201 195 189 189 191 187 187 186 185 186 188 183 177 177 174 169 166 170 172 170 166 164 162 159 155 152
231 237 239 233 227 223 218 208 207 198 186 203 216 211 195 192 188 180 170 168 173 172 173 182 181 184 190 186 183 175 174 172 169 166 162 156 156 159 157 156 160 164 163
236 241 237 229 228 219 204 200 195 176 174 188 193 185 178 176 178 163 157 168 171 168 173 179 182 188 190 180 179 175 168 170 171 166 161 158 157 151 147 151 156 168 178
236 241 235 235 223 196 179 167 154 155 166 178 181 178 173 170 162 162 169 165 160 170 175 177 180 180 184 179 176 167 158 158 162 166 165 161 160 162 154 149 152 159 172
216 217 211 198 148 138 140 132 135 144 161 182 188 181 174 169 166 174 174 160 156 164 166 169 173 175 177 176 170 159 151 151 154 157 160 162 163 169 164 157 160 165 177
142 135 109 93 99 110 120 130 146 156 182 188 177 164 165 170 173 171 160 147 153 156 147 154 165 170 170 174 170 162 153 153 153 152 158 168 170 172 171 167 168 178 180
98 93 90 83 76 95 115 129 137 167 161 135 136 140 150 154 152 141 134 136 135 133 136 138 141 158 166 174 175 171 162 162 161 166 170 179 181 181 181 177 178 182 162
93 92 94 78 57 69 104 115 112 104 108 116 119 124 129 129 133 134 131 135 140 142 142 141 141 145 158 172 180 181 178 168 167 174 171 178 183 185 185 181 181 177 163
100 92 100 88 60 50 76 96 76 93 104 105 108 111 113 115 126 136 141 141 150 155 157 161 167 167 164 179 183 184 183 178 167 163 169 176 184 184 185 188 184 174 171
98 99 102 95 74 54 55 62 69 89 105 107 105 106 113 112 111 117 138 152 164 169 168 175 178 170 171 176 173 172 173 174 163 148 160 175 182 181 175 180 189 186 188
95 94 98 96 85 71 59 48 51 80 97 99 98 99 96 104 107 104 115 151 179 192 185 189 183 181 190 195 186 174 174 167 162 145 144 159 169 182 187 191 193 194 198
96 93 90 91 84 75 62 40 34 67 97 98 93 91 94 93 97 97 64 55 93 242 235 216 197 201 194 181 189 193 189 182 172 163 177 187 192 196 197 198 200 203 209